User: anonymous   Login
Location: Rumah Apan
(2.7833°N, 113.9500°E)
Time: 07:38:46
(UTC+00:00)
Language:

DMSP B5D2-2 - Orbit

View from above orbital plane
View from above orbital plane
View from above satellite
View from above satellite

Ground track
Ground track

The orbit data is extracted from the following two-line orbital elements,

1 14506U 83113A   21293.52403696  .00000065  00000-0  42518-4 0  9999
2 14506  98.2917 128.3688 0010539 211.4586 202.4036 14.28176469972626
Epoch (UTC): 20 October 2021 12:34:36
Eccentricity: 0.0010539
inclination: 98.2917°
perigee height: 790 km
apogee height: 805 km
right ascension of ascending node: 128.3688°
argument of perigee: 211.4586°
revolutions per day: 14.28176469
mean anomaly at epoch: 202.4036°
orbit number at epoch: 97262

The dashed part of the orbit path shows where the satellite is in the earth's shadow,  

DLR